PIA460 OPIS-OPSD

Flight info

Callsign PIA460
Flight time 0h 48m
Altitude 31000
Route BOBAM DCT KAGLO J186 KAPMI J154 BUNGI J186 DELDA DCT BIREB
Aircraft A320/M-SDE3FGHIRWY/LB1

Departure

Time 2026-05-06 18:40
Airport Islamabad International Airport (OPIS)

Arrival

Time 2026-05-06 19:29
Airport Skardu International Airport (OPSD)
Time Latitude Longitude Altitude Speed Heading
2026-05-06 18:09 33.55414 72.83519 1770 ft 0 kts 10°
2026-05-06 18:25 33.55405 72.83517 1770 ft 4 kts 12°
2026-05-06 18:25 33.55379 72.83509 1771 ft 4 kts 19°
2026-05-06 18:26 33.55355 72.83496 1770 ft 4 kts 36°
2026-05-06 18:26 33.55339 72.83475 1770 ft 4 kts 85°
2026-05-06 18:26 33.55339 72.83463 1772 ft 1 kts 100°
2026-05-06 18:26 33.55339 72.83462 1772 ft 0 kts 100°
2026-05-06 18:28 33.55337 72.83476 1770 ft 7 kts 101°
2026-05-06 18:28 33.55319 72.83530 1771 ft 7 kts 133°
2026-05-06 18:28 33.55263 72.83541 1770 ft 8 kts 189°
2026-05-06 18:29 33.55185 72.83523 1770 ft 15 kts 191°
2026-05-06 18:29 33.55082 72.83501 1771 ft 13 kts 180°
2026-05-06 18:29 33.55039 72.83592 1769 ft 14 kts 102°
2026-05-06 18:29 33.55033 72.83689 1769 ft 8 kts 112°
2026-05-06 18:30 33.55025 72.83677 1769 ft 3 kts 285°
2026-05-06 18:30 33.55040 72.83586 1769 ft 11 kts 279°
2026-05-06 18:30 33.55051 72.83501 1769 ft 9 kts 281°
2026-05-06 18:30 33.55063 72.83429 1768 ft 8 kts 281°
2026-05-06 18:31 33.55074 72.83366 1771 ft 7 kts 281°
2026-05-06 18:31 33.55082 72.83314 1770 ft 6 kts 281°
2026-05-06 18:31 33.55097 72.83219 1772 ft 16 kts 281°
2026-05-06 18:31 33.55118 72.83088 1768 ft 16 kts 280°
2026-05-06 18:32 33.55139 72.82949 1771 ft 17 kts 280°
2026-05-06 18:32 33.55161 72.82804 1769 ft 18 kts 281°
2026-05-06 18:32 33.55185 72.82650 1769 ft 19 kts 280°
2026-05-06 18:32 33.55210 72.82484 1771 ft 21 kts 280°
2026-05-06 18:33 33.55238 72.82305 1770 ft 23 kts 280°
2026-05-06 18:33 33.55266 72.82110 1768 ft 25 kts 279°
2026-05-06 18:33 33.55298 72.81901 1769 ft 26 kts 280°
2026-05-06 18:33 33.55333 72.81678 1767 ft 28 kts 281°
2026-05-06 18:34 33.55370 72.81442 1771 ft 30 kts 280°
2026-05-06 18:34 33.55407 72.81200 1767 ft 26 kts 281°
2026-05-06 18:34 33.55436 72.81007 1769 ft 22 kts 281°
2026-05-06 18:34 33.55464 72.80826 1768 ft 21 kts 280°
2026-05-06 18:35 33.55453 72.80699 1767 ft 13 kts 215°
2026-05-06 18:35 33.55348 72.80673 1765 ft 19 kts 191°
2026-05-06 18:35 33.55239 72.80650 1751 ft 11 kts 189°
2026-05-06 18:35 33.55220 72.80646 1753 ft 0 kts 189°
2026-05-06 18:37 33.55218 72.80645 1753 ft 3 kts 189°
2026-05-06 18:37 33.55145 72.80631 1750 ft 12 kts 189°
2026-05-06 18:37 33.55105 72.80644 1753 ft 5 kts 107°
2026-05-06 18:38 33.55104 72.80655 1749 ft 0 kts 99°
2026-05-06 18:39 33.55091 72.80741 1752 ft 43 kts 101°
2026-05-06 18:40 33.54808 72.82565 1761 ft 169 kts 100°
2026-05-06 18:40 33.54586 72.83972 2357 ft 172 kts 101°
2026-05-06 18:40 33.54347 72.85392 3065 ft 175 kts 101°
2026-05-06 18:40 33.54096 72.86838 3674 ft 183 kts 101°
2026-05-06 18:41 33.53845 72.88424 3976 ft 205 kts 99°
2026-05-06 18:41 33.53578 72.90205 4266 ft 228 kts 100°
2026-05-06 18:41 33.52992 72.92043 4703 ft 250 kts 126°
2026-05-06 18:41 33.51748 72.93637 5124 ft 273 kts 140°
2026-05-06 18:42 33.50235 72.95088 5852 ft 283 kts 144°
2026-05-06 18:42 33.48642 72.96525 6714 ft 289 kts 143°
2026-05-06 18:42 33.47038 72.98000 7583 ft 293 kts 142°
2026-05-06 18:42 33.45437 72.99536 8467 ft 297 kts 141°
2026-05-06 18:43 33.43841 73.01128 9348 ft 301 kts 140°
2026-05-06 18:43 33.42270 73.02797 10190 ft 305 kts 132°
2026-05-06 18:43 33.41122 73.04983 10622 ft 322 kts 107°
2026-05-06 18:43 33.40846 73.07652 11008 ft 335 kts 82°
2026-05-06 18:44 33.41550 73.10339 11697 ft 337 kts 58°
2026-05-06 18:44 33.43063 73.12418 12454 ft 337 kts 34°
2026-05-06 18:44 33.45173 73.13572 13248 ft 336 kts 10°
2026-05-06 18:44 33.47501 73.13652 14015 ft 337 kts 355°
2026-05-06 18:45 33.49843 73.13425 14753 ft 339 kts 354°
2026-05-06 18:45 33.52201 73.13182 15475 ft 341 kts 354°
2026-05-06 18:45 33.54578 73.12932 16200 ft 344 kts 354°
2026-05-06 18:45 33.56160 73.12771 16669 ft 346 kts 355°
2026-05-06 18:46 33.59406 73.12552 17581 ft 352 kts 357°
2026-05-06 18:46 33.61866 73.12451 18247 ft 356 kts 358°
2026-05-06 18:46 33.64351 73.12371 18843 ft 358 kts 358°
2026-05-06 18:46 33.66851 73.12291 19474 ft 360 kts 358°
2026-05-06 18:47 33.69363 73.12201 20114 ft 362 kts 358°
2026-05-06 18:47 33.71888 73.12101 20743 ft 364 kts 357°
2026-05-06 18:47 33.74426 73.11996 21369 ft 366 kts 357°
2026-05-06 18:47 33.76977 73.11882 22000 ft 368 kts 357°
2026-05-06 18:48 33.79540 73.11764 22580 ft 370 kts 357°
2026-05-06 18:48 33.82117 73.11645 23233 ft 371 kts 357°
2026-05-06 18:48 33.84708 73.11526 23799 ft 374 kts 357°
2026-05-06 18:48 33.87316 73.11413 24314 ft 376 kts 357°
2026-05-06 18:49 33.89938 73.11300 24816 ft 378 kts 357°
2026-05-06 18:49 33.92569 73.11185 25311 ft 379 kts 357°
2026-05-06 18:49 33.95176 73.11069 25771 ft 381 kts 357°
2026-05-06 18:49 33.97831 73.10953 26233 ft 383 kts 357°
2026-05-06 18:50 34.00501 73.10837 26682 ft 385 kts 357°
2026-05-06 18:50 34.03183 73.10723 27127 ft 387 kts 357°
2026-05-06 18:50 34.05877 73.10608 27568 ft 388 kts 357°
2026-05-06 18:50 34.08582 73.10492 28002 ft 390 kts 357°
2026-05-06 18:51 34.11307 73.10368 28402 ft 393 kts 357°
2026-05-06 18:51 34.14047 73.10243 28816 ft 395 kts 357°
2026-05-06 18:51 34.16800 73.10121 29236 ft 397 kts 357°
2026-05-06 18:51 34.19567 73.09998 29639 ft 399 kts 357°
2026-05-06 18:52 34.22347 73.09876 30029 ft 401 kts 357°
2026-05-06 18:52 34.25139 73.09755 30344 ft 402 kts 356°
2026-05-06 18:52 34.27947 73.09630 30645 ft 404 kts 356°
2026-05-06 18:52 34.30761 73.09504 30900 ft 406 kts 356°
2026-05-06 18:53 34.33570 73.09379 30974 ft 398 kts 356°
2026-05-06 18:53 34.36277 73.09262 30981 ft 381 kts 356°
2026-05-06 18:53 34.38902 73.09147 30865 ft 376 kts 356°
2026-05-06 18:54 34.44067 73.08896 30945 ft 371 kts 356°
2026-05-06 18:54 34.49229 73.08667 30984 ft 371 kts 356°
2026-05-06 18:55 34.54380 73.08744 30980 ft 373 kts
2026-05-06 18:55 34.56874 73.09690 31020 ft 378 kts 22°
2026-05-06 18:55 34.59125 73.11378 31016 ft 385 kts 36°
2026-05-06 18:55 34.60999 73.13734 31011 ft 392 kts 49°
2026-05-06 18:56 34.62470 73.16543 31007 ft 395 kts 54°
2026-05-06 18:56 34.65367 73.22221 31083 ft 397 kts 53°
2026-05-06 18:56 34.66817 73.25089 30974 ft 398 kts 54°
2026-05-06 18:57 34.68236 73.27982 31001 ft 397 kts 54°
2026-05-06 18:57 34.71077 73.33771 31084 ft 399 kts 54°
2026-05-06 18:58 34.73950 73.39539 31121 ft 398 kts 54°
2026-05-06 18:58 34.76791 73.45244 31121 ft 397 kts 53°
2026-05-06 18:59 34.80363 73.50201 31118 ft 385 kts 34°
2026-05-06 18:59 34.82445 73.52149 31169 ft 370 kts 33°
2026-05-06 18:59 34.84442 73.54026 31172 ft 354 kts 33°
2026-05-06 19:00 34.88254 73.57622 31173 ft 343 kts 34°
2026-05-06 19:00 34.92020 73.61165 31171 ft 342 kts 34°
2026-05-06 19:01 34.95783 73.64708 31186 ft 341 kts 34°
2026-05-06 19:01 34.98906 73.67652 31217 ft 341 kts 35°
2026-05-06 19:02 35.02662 73.71192 31217 ft 341 kts 35°
2026-05-06 19:02 35.06418 73.74746 31216 ft 341 kts 35°
2026-05-06 19:03 35.10175 73.78296 31214 ft 341 kts 35°
2026-05-06 19:03 35.13922 73.81846 31217 ft 341 kts 35°
2026-05-06 19:04 35.17670 73.85403 31204 ft 341 kts 36°
2026-05-06 19:04 35.21410 73.88964 31197 ft 341 kts 36°
2026-05-06 19:05 35.25160 73.92531 31199 ft 342 kts 36°
2026-05-06 19:05 35.28915 73.96107 31204 ft 342 kts 36°
2026-05-06 19:06 35.32671 73.99684 31206 ft 342 kts 36°
2026-05-06 19:06 35.36427 74.03263 31209 ft 343 kts 37°
2026-05-06 19:07 35.40159 74.06925 31192 ft 344 kts 43°
2026-05-06 19:07 35.43056 74.11605 31207 ft 348 kts 61°
2026-05-06 19:08 35.45269 74.16888 31204 ft 349 kts 60°
2026-05-06 19:08 35.47490 74.22137 31220 ft 349 kts 60°
2026-05-06 19:09 35.49739 74.27465 31222 ft 350 kts 60°
2026-05-06 19:09 35.51956 74.32730 31214 ft 350 kts 60°
2026-05-06 19:10 35.54178 74.38039 31230 ft 349 kts 61°
2026-05-06 19:10 35.56403 74.43354 31229 ft 350 kts 61°
2026-05-06 19:11 35.58629 74.48676 31233 ft 350 kts 61°
2026-05-06 19:11 35.60840 74.53995 31242 ft 350 kts 61°
2026-05-06 19:11 35.61950 74.56661 31092 ft 353 kts 61°
2026-05-06 19:12 35.63068 74.59342 30789 ft 351 kts 62°
2026-05-06 19:12 35.64198 74.61991 30505 ft 350 kts 60°
2026-05-06 19:12 35.65374 74.64616 30221 ft 351 kts 60°
2026-05-06 19:12 35.66572 74.67222 30008 ft 349 kts 59°
2026-05-06 19:13 35.67780 74.69830 30010 ft 351 kts 59°
2026-05-06 19:13 35.70182 74.75064 30010 ft 352 kts 64°
2026-05-06 19:13 35.70926 74.77924 30008 ft 353 kts 81°
2026-05-06 19:14 35.70924 74.80938 30019 ft 356 kts 98°
2026-05-06 19:14 35.69582 74.86842 30029 ft 359 kts 104°
2026-05-06 19:15 35.68158 74.92729 30020 ft 359 kts 104°
2026-05-06 19:15 35.67435 74.95710 29078 ft 369 kts 104°
2026-05-06 19:15 35.66698 74.98760 27878 ft 375 kts 104°
2026-05-06 19:15 35.65957 75.01818 26741 ft 381 kts 104°
2026-05-06 19:16 35.65197 75.04951 25637 ft 384 kts 104°
2026-05-06 19:16 35.64435 75.08104 24569 ft 385 kts 105°
2026-05-06 19:16 35.63671 75.11258 23489 ft 386 kts 105°
2026-05-06 19:16 35.62909 75.14396 22831 ft 377 kts 105°
2026-05-06 19:17 35.62160 75.17475 22383 ft 374 kts 105°
2026-05-06 19:17 35.61414 75.20533 21948 ft 376 kts 105°
2026-05-06 19:17 35.60671 75.23568 21491 ft 361 kts 105°
2026-05-06 19:17 35.59962 75.26454 21068 ft 344 kts 105°
2026-05-06 19:18 35.59285 75.29209 20698 ft 328 kts 105°
2026-05-06 19:18 35.58407 75.31722 20435 ft 314 kts 119°
2026-05-06 19:18 35.57100 75.33800 20169 ft 305 kts 133°
2026-05-06 19:18 35.55449 75.35410 19868 ft 303 kts 146°
2026-05-06 19:19 35.53651 75.36763 19546 ft 302 kts 146°
2026-05-06 19:19 35.51871 75.38103 19218 ft 299 kts 146°
2026-05-06 19:19 35.50102 75.39435 18887 ft 297 kts 146°
2026-05-06 19:19 35.48365 75.40741 18578 ft 296 kts 146°
2026-05-06 19:20 35.46638 75.42042 18193 ft 286 kts 146°
2026-05-06 19:20 35.44974 75.43300 17830 ft 276 kts 146°
2026-05-06 19:20 35.43356 75.44524 17468 ft 271 kts 146°
2026-05-06 19:20 35.41758 75.45727 17111 ft 268 kts 147°
2026-05-06 19:21 35.40164 75.46922 16764 ft 269 kts 147°
2026-05-06 19:21 35.38567 75.48120 16417 ft 270 kts 147°
2026-05-06 19:21 35.36960 75.49327 16080 ft 270 kts 147°
2026-05-06 19:21 35.35354 75.50530 15735 ft 271 kts 147°
2026-05-06 19:22 35.33741 75.51741 15387 ft 272 kts 147°
2026-05-06 19:22 35.32247 75.53141 14979 ft 273 kts 135°
2026-05-06 19:22 35.30878 75.54817 14306 ft 283 kts 133°
2026-05-06 19:22 35.29549 75.56567 13641 ft 275 kts 131°
2026-05-06 19:23 35.28345 75.58326 13019 ft 265 kts 121°
2026-05-06 19:23 35.27609 75.60327 12467 ft 253 kts 99°
2026-05-06 19:23 35.27659 75.62395 11958 ft 240 kts 71°
2026-05-06 19:23 35.28522 75.64019 11669 ft 218 kts 36°
2026-05-06 19:24 35.29851 75.64565 11491 ft 200 kts 354°
2026-05-06 19:24 35.31107 75.63900 11256 ft 202 kts 313°
2026-05-06 19:24 35.32001 75.62498 11017 ft 212 kts 304°
2026-05-06 19:24 35.32770 75.60941 10898 ft 215 kts 299°
2026-05-06 19:25 35.33504 75.59344 10821 ft 216 kts 301°
2026-05-06 19:25 35.34318 75.57808 10584 ft 214 kts 309°
2026-05-06 19:25 35.35303 75.56452 10413 ft 213 kts 313°
2026-05-06 19:25 35.36234 75.55062 10308 ft 209 kts 292°
2026-05-06 19:26 35.36311 75.53320 10357 ft 205 kts 247°
2026-05-06 19:26 35.35386 75.52172 10340 ft 187 kts 201°
2026-05-06 19:26 35.34102 75.51969 10164 ft 195 kts 175°
2026-05-06 19:26 35.32748 75.52327 10061 ft 199 kts 161°
2026-05-06 19:27 35.31432 75.52898 9795 ft 201 kts 160°
2026-05-06 19:27 35.30181 75.53500 9486 ft 190 kts 157°
2026-05-06 19:27 35.29093 75.54216 9436 ft 168 kts 135°
2026-05-06 19:27 35.28696 75.55482 9275 ft 161 kts 80°
2026-05-06 19:28 35.29278 75.56595 8835 ft 162 kts 26°
2026-05-06 19:28 35.30387 75.56601 8231 ft 170 kts 335°
2026-05-06 19:28 35.31413 75.55837 7712 ft 173 kts 327°
2026-05-06 19:28 35.32400 75.55053 7420 ft 163 kts 327°
2026-05-06 19:29 35.33262 75.54374 7381 ft 124 kts 327°
2026-05-06 19:29 35.33731 75.54003 7382 ft 37 kts 327°
2026-05-06 19:29 35.33795 75.53944 7381 ft 9 kts 307°
2026-05-06 19:29 35.33808 75.53944 7381 ft 4 kts 130°
2026-05-06 19:30 35.33730 75.54004 7382 ft 19 kts 148°
2026-05-06 19:30 35.33575 75.54125 7383 ft 31 kts 147°
2026-05-06 19:30 35.33401 75.54263 7381 ft 28 kts 147°
2026-05-06 19:30 35.33296 75.54345 7384 ft 13 kts 148°
2026-05-06 19:31 35.33239 75.54325 7384 ft 9 kts 236°
2026-05-06 19:31 35.33205 75.54260 7385 ft 9 kts 237°
2026-05-06 19:31 35.33142 75.54141 7384 ft 8 kts 237°
2026-05-06 19:32 35.33120 75.54099 7384 ft 5 kts 237°
2026-05-06 19:32 35.33102 75.54079 7384 ft 3 kts 206°
2026-05-06 19:32 35.33087 75.54080 7381 ft 2 kts 163°
2026-05-06 19:32 35.33075 75.54087 7381 ft 3 kts 150°
2026-05-06 19:33 35.33065 75.54095 7381 ft 2 kts 148°
2026-05-06 19:33 35.33050 75.54107 7382 ft 0 kts 147°